Flag for Venezuela Weather past 2 weeks in Maracay, Venezuela

Now
84 °F

Partly sunny.


Feels Like: 88 °F
Forecast: 68 / 90 °F
Wind: 8 mph from Southwest

Location: Valencia Airport

Current Time: Aug 2, 2015 at 12:53:14 PM

Latest Report: Aug 2, 2015 at 12:30 PM


Visibility: N/A

Pressure: 29.98 "Hg

Humidity: 62%

Dew point: 70 °F

Location of MaracayLocation

Historic Weather in Maracay — Graph

°F

Maracay temperature yesterday

Maximum temperature yesterday: 88 °F (at 2:30 PM)
Minimum temperature yesterday: 73 °F (at 4:30 AM)
Average temperature yesterday: 79 °F

Past Weeks' High & Low Weather Summary

 TemperatureHumidityPressure
High95 °F (Jul 29, 1:30 PM)100% (Jul 31, 9:30 PM)30.12 "Hg (Jul 31, 9:30 PM)
Low72 °F (Jul 31, 8:30 PM)41% (Jul 29, 1:30 PM)29.83 "Hg (Jul 27, 5:30 PM)
Average83 °F72%29.99 "Hg
* Reported Jul 18 11:30 AM — Aug 2 11:30 AM, Maracay, Weather by CustomWeather, © 2015

Note: Actual official high and low records may vary slightly from our data, if they occured in-between our weather recording intervals... More about our weather records

Advertising

Maracay weather history for previous 24 hours

 ConditionsComfort  
Time TempWeatherWind HumidityBarometerVisibility
11:30 AM
Sun, Aug 2
86 °FScattered clouds.2 mph55%29.98 "HgN/A
10:30 AM84 °FScattered clouds.3 mph62%29.98 "HgN/A
9:30 AM81 °FScattered clouds.2 mph74%29.98 "HgN/A
8:30 AM79 °FScattered clouds.3 mph74%29.98 "HgN/A
7:30 AM73 °FPartly sunny.1 mph94%29.98 "HgN/A
6:30 AM72 °FPartly sunny.No wind94%29.95 "HgN/A
4:30 AM73 °FPassing clouds.3 mph94%29.95 "HgN/A
1:30 AM75 °FPassing clouds.3 mph89%29.98 "HgN/A
10:30 PM
Sat, Aug 1
75 °FPassing clouds.3 mph89%29.95 "HgN/A
9:30 PM75 °FPassing clouds.5 mph83%29.95 "HgN/A
8:30 PM75 °FPassing clouds.2 mph83%29.92 "HgN/A
7:30 PM77 °FPassing clouds.3 mph74%29.92 "HgN/A
6:30 PM77 °FPassing clouds.8 mph100%29.92 "HgN/A
5:30 PM77 °FPartly sunny.10 mph74%29.89 "HgN/A
4:30 PM79 °FPassing clouds.14 mph74%29.89 "HgN/A
3:30 PM86 °FPassing clouds.5 mph55%29.89 "HgN/A
2:30 PM88 °FScattered clouds.10 mph59%29.92 "HgN/A
1:30 PM86 °FScattered clouds.5 mph59%29.95 "HgN/A
12:30 PM86 °FScattered clouds.3 mph59%29.98 "HgN/A
Weather by CustomWeather, © 2015

See weather overviewHow to use our weather pages